| time (UTC) | temp F | wind direction | speed knots | gust knots | rain 1hr in | rain 24hr in | rain mn in | humidity % | barometer mb |
| 20260506103555 | 75 | 129 | 1.7 | 5.2 | 0.00 | 0.00 | 0.00 | 95 | 1007.6 |
| 20260506103055 | 75 | 134 | 1.7 | 6.1 | 0.00 | 0.00 | 0.00 | 95 | 1007.5 |
| 20260506102555 | 75 | 115 | 1.7 | 6.1 | 0.00 | 0.00 | 0.00 | 96 | 1007.6 |
| 20260506102055 | 75 | 126 | 1.7 | 4.3 | 0.00 | 0.00 | 0.00 | 95 | 1007.6 |
| 20260506101556 | 75 | 134 | 1.7 | 4.3 | 0.00 | 0.00 | 0.00 | 96 | 1007.6 |
| 20260506101056 | 75 | 135 | 0.9 | 5.2 | 0.00 | 0.00 | 0.00 | 95 | 1007.5 |
| 20260506100554 | 75 | 128 | 2.6 | 6.1 | 0.00 | 0.00 | 0.00 | 95 | 1007.5 |
| 20260506095556 | 75 | 128 | 1.7 | 5.2 | 0.00 | 0.00 | 0.00 | 95 | 1007.4 |
| 20260506095055 | 75 | 132 | 1.7 | 3.5 | 0.00 | 0.00 | 0.00 | 95 | 1007.5 |
| 20260506094611 | 75 | 116 | 1.7 | 6.1 | 0.00 | 0.00 | 0.00 | 95 | 1007.5 |
| 20260506094100 | 75 | 119 | 1.7 | 6.1 | 0.00 | 0.00 | 0.00 | 95 | 1007.4 |
| 20260506093557 | 75 | 119 | 1.7 | 4.3 | 0.00 | 0.00 | 0.00 | 95 | 1007.4 |
| 20260506093055 | 75 | 126 | 1.7 | 4.3 | 0.00 | 0.00 | 0.00 | 95 | 1007.5 |
| 20260506092555 | 75 | 115 | 1.7 | 4.3 | 0.00 | 0.00 | 0.00 | 95 | 1007.4 |
| 20260506092055 | 75 | 114 | 1.7 | 6.1 | 0.00 | 0.00 | 0.00 | 95 | 1007.4 |
| 20260506091555 | 75 | 129 | 1.7 | 6.1 | 0.00 | 0.00 | 0.00 | 95 | 1007.4 |
| 20260506091056 | 75 | 121 | 1.7 | 6.1 | 0.00 | 0.00 | 0.00 | 95 | 1007.5 |
| 20260506090554 | 75 | 142 | 1.7 | 6.1 | 0.00 | 0.00 | 0.00 | 94 | 1007.5 |
| 20260506090055 | 75 | 135 | 1.7 | 5.2 | 0.00 | 0.00 | 0.00 | 94 | 1007.4 |
| 20260506085555 | 75 | 147 | 2.6 | 5.2 | 0.00 | 0.00 | 0.00 | 94 | 1007.3 |
| 20260506085057 | 75 | 128 | 0.9 | 4.3 | 0.00 | 0.00 | 0.00 | 94 | 1007.3 |
| 20260506084557 | 75 | 128 | 1.7 | 6.1 | 0.00 | 0.00 | 0.00 | 94 | 1007.4 |
| 20260506084055 | 75 | 134 | 0.9 | 6.1 | 0.00 | 0.00 | 0.00 | 94 | 1007.4 |
| 20260506083556 | 75 | 127 | 1.7 | 6.1 | 0.00 | 0.00 | 0.00 | 94 | 1007.4 |
| 20260506083102 | 75 | 132 | 2.6 | 7.0 | 0.00 | 0.00 | 0.00 | 94 | 1007.4 |
| 20260506082555 | 75 | 150 | 2.6 | 7.0 | 0.00 | 0.00 | 0.00 | 94 | 1007.4 |
| 20260506082055 | 76 | 128 | 3.5 | 7.0 | 0.00 | 0.00 | 0.00 | 94 | 1007.4 |
| 20260506081556 | 76 | 152 | 2.6 | 7.8 | 0.00 | 0.00 | 0.00 | 93 | 1007.4 |
| 20260506081057 | 76 | 134 | 2.6 | 7.8 | 0.00 | 0.00 | 0.00 | 93 | 1007.4 |
| 20260506080555 | 76 | 128 | 3.5 | 7.8 | 0.00 | 0.00 | 0.00 | 93 | 1007.5 |
| 20260506080107 | 76 | 121 | 2.6 | 7.8 | 0.00 | 0.00 | 0.00 | 93 | 1007.5 |
| 20260506073118 | 76 | 153 | 3.5 | 7.8 | 0.00 | 0.00 | 0.00 | 92 | 1007.7 |
| 20260506072556 | 76 | 170 | 3.5 | 7.8 | 0.00 | 0.00 | 0.00 | 92 | 1007.8 |
| 20260506072055 | 76 | 142 | 4.3 | 7.8 | 0.00 | 0.00 | 0.00 | 92 | 1007.8 |
| 20260506071602 | 76 | 137 | 3.5 | 9.6 | 0.00 | 0.00 | 0.00 | 92 | 1007.9 |
| 20260506071058 | 76 | 136 | 4.3 | 10.4 | 0.00 | 0.00 | 0.00 | 92 | 1008.0 |
| 20260506070554 | 76 | 159 | 4.3 | 12.2 | 0.00 | 0.00 | 0.00 | 92 | 1008.1 |
| 20260506062055 | 76 | 142 | 2.6 | 7.0 | 0.00 | 0.00 | 0.00 | 92 | 1008.7 |
| 20260506061601 | 76 | 148 | 2.6 | 7.0 | 0.00 | 0.00 | 0.00 | 92 | 1008.7 |
| 20260506061055 | 76 | 148 | 2.6 | 7.0 | 0.00 | 0.00 | 0.00 | 92 | 1008.7 |
| 20260506060556 | 76 | 123 | 2.6 | 8.7 | 0.00 | 0.00 | 0.00 | 92 | 1008.8 |
| 20260506051052 | 77 | 168 | 6.1 | 13.0 | 0.00 | 0.00 | 0.00 | 91 | 1008.4 |
| 20260506050552 | 77 | 162 | 6.1 | 12.2 | 0.00 | 0.00 | 0.00 | 91 | 1008.3 |
| 20260506045054 | 77 | 140 | 6.1 | 13.9 | 0.00 | 0.00 | 0.00 | 91 | 1008.2 |
| 20260506044601 | 77 | 192 | 6.1 | 12.2 | 0.00 | 0.00 | 0.00 | 91 | 1008.1 |
| 20260506044051 | 77 | 154 | 6.1 | 10.4 | 0.00 | 0.00 | 0.00 | 91 | 1008.1 |
| 20260506043553 | 77 | 121 | 4.3 | 14.8 | 0.00 | 0.00 | 0.00 | 91 | 1008.1 |
| 20260506043101 | 77 | 157 | 6.1 | 14.8 | 0.00 | 0.00 | 0.00 | 91 | 1008.0 |
| 20260506042553 | 77 | 144 | 7.8 | 14.8 | 0.00 | 0.00 | 0.00 | 91 | 1007.9 |
| 20260506042053 | 77 | 126 | 5.2 | 14.8 | 0.00 | 0.00 | 0.00 | 91 | 1007.8 |
| 20260506041557 | 77 | 163 | 6.1 | 14.8 | 0.00 | 0.00 | 0.00 | 91 | 1007.9 |
| 20260506041052 | 76 | 115 | 6.1 | 12.2 | 0.00 | 0.00 | 0.00 | 91 | 1007.8 |
| 20260506040552 | 76 | 144 | 4.3 | 12.2 | 0.00 | 0.00 | 0.00 | 91 | 1007.9 |
| 20260506040058 | 76 | 161 | 4.3 | 12.2 | 0.00 | 0.00 | 0.00 | 91 | 1007.8 |
| 20260506035552 | 76 | 167 | 6.1 | 12.2 | 0.00 | 0.00 | 0.00 | 91 | 1007.8 |
| 20260506035052 | 77 | 153 | 5.2 | 12.2 | 0.00 | 0.00 | 0.00 | 91 | 1007.8 |
| 20260506034604 | 77 | 140 | 5.2 | 12.2 | 0.00 | 0.00 | 0.00 | 90 | 1007.7 |
| 20260506034051 | 77 | 133 | 6.1 | 14.8 | 0.00 | 0.00 | 0.00 | 90 | 1007.7 |
| 20260506033554 | 77 | 136 | 7.0 | 14.8 | 0.00 | 0.00 | 0.00 | 90 | 1007.7 |
| 20260506033109 | 77 | 130 | 5.2 | 13.9 | 0.00 | 0.00 | 0.00 | 90 | 1007.7 |
| 20260506032556 | 77 | 170 | 7.0 | 13.9 | 0.00 | 0.00 | 0.00 | 90 | 1007.6 |
| 20260506032056 | 77 | 140 | 6.1 | 13.9 | 0.00 | 0.00 | 0.00 | 90 | 1007.7 |
| 20260506031555 | 77 | 144 | 5.2 | 13.9 | 0.00 | 0.00 | 0.00 | 90 | 1007.6 |
| 20260506031052 | 77 | 144 | 5.2 | 13.0 | 0.00 | 0.00 | 0.00 | 90 | 1007.7 |
| 20260506030555 | 77 | 153 | 5.2 | 13.9 | 0.00 | 0.00 | 0.00 | 90 | 1007.7 |
| 20260506025553 | 76 | 135 | 7.0 | 13.0 | 0.00 | 0.00 | 0.00 | 90 | 1007.5 |
| 20260506025055 | 76 | 122 | 4.3 | 13.9 | 0.00 | 0.00 | 0.00 | 90 | 1007.4 |
| 20260506024614 | 77 | 167 | 7.0 | 13.9 | 0.00 | 0.00 | 0.00 | 90 | 1007.4 |
| 20260506024052 | 77 | 150 | 5.2 | 12.2 | 0.00 | 0.00 | 0.00 | 90 | 1007.2 |
| 20260506023552 | 77 | 128 | 7.0 | 14.8 | 0.00 | 0.00 | 0.00 | 90 | 1007.1 |
| 20260506023104 | 77 | 156 | 6.1 | 14.8 | 0.00 | 0.00 | 0.00 | 90 | 1006.9 |
| 20260506022552 | 77 | 105 | 7.0 | 14.8 | 0.00 | 0.00 | 0.00 | 90 | 1006.9 |
| 20260506022053 | 77 | 161 | 7.8 | 13.9 | 0.00 | 0.00 | 0.00 | 90 | 1006.9 |
| 20260506021559 | 77 | 142 | 5.2 | 13.0 | 0.00 | 0.00 | 0.00 | 90 | 1006.9 |
| 20260506021055 | 77 | 135 | 5.2 | 13.0 | 0.00 | 0.00 | 0.00 | 89 | 1006.9 |
| 20260506020551 | 77 | 170 | 5.2 | 12.2 | 0.00 | 0.00 | 0.00 | 89 | 1006.8 |
| 20260506020100 | 77 | 139 | 7.0 | 13.0 | 0.00 | 0.00 | 0.00 | 89 | 1006.8 |
| 20260506015554 | 77 | 115 | 5.2 | 13.0 | 0.00 | 0.00 | 0.00 | 89 | 1006.7 |
| 20260506015052 | 77 | 123 | 5.2 | 14.8 | 0.00 | 0.00 | 0.00 | 89 | 1006.7 |
| 20260506014559 | 77 | 137 | 6.1 | 14.8 | 0.00 | 0.00 | 0.00 | 89 | 1006.5 |
| 20260506014100 | 77 | 138 | 7.8 | 13.9 | 0.00 | 0.00 | 0.00 | 88 | 1006.5 |
| 20260506013554 | 77 | 211 | 6.1 | 15.6 | 0.00 | 0.00 | 0.00 | 88 | 1006.4 |
| 20260506013106 | 77 | 152 | 7.8 | 15.6 | 0.00 | 0.00 | 0.00 | 88 | 1006.3 |
| 20260506012552 | 77 | 158 | 6.1 | 16.5 | 0.00 | 0.00 | 0.00 | 88 | 1006.4 |
| 20260506012054 | 77 | 159 | 8.7 | 16.5 | 0.00 | 0.00 | 0.00 | 88 | 1006.3 |
| 20260506011623 | 77 | 165 | 7.8 | 14.8 | 0.00 | 0.00 | 0.00 | 88 | 1006.2 |
| 20260506011053 | 77 | 143 | 5.2 | 14.8 | 0.00 | 0.00 | 0.00 | 88 | 1006.0 |
| 20260506010553 | 77 | 148 | 7.8 | 13.9 | 0.00 | 0.00 | 0.00 | 87 | 1006.0 |
| 20260506010115 | 78 | 136 | 7.0 | 13.9 | 0.00 | 0.00 | 0.00 | 87 | 1006.0 |
| 20260506005551 | 78 | 147 | 7.0 | 17.4 | 0.00 | 0.00 | 0.00 | 87 | 1005.9 |
| 20260506005057 | 78 | 161 | 8.7 | 18.2 | 0.00 | 0.00 | 0.00 | 87 | 1006.0 |
| 20260506004556 | 78 | 164 | 7.8 | 18.2 | 0.00 | 0.00 | 0.00 | 87 | 1006.0 |
| 20260506004052 | 78 | 134 | 5.2 | 13.9 | 0.00 | 0.00 | 0.00 | 87 | 1005.8 |
| 20260506003552 | 78 | 128 | 7.0 | 13.9 | 0.00 | 0.00 | 0.00 | 86 | 1005.7 |
| 20260506003058 | 78 | 163 | 7.8 | 13.0 | 0.00 | 0.00 | 0.00 | 86 | 1005.8 |
| 20260506002554 | 79 | 164 | 6.1 | 14.8 | 0.00 | 0.00 | 0.00 | 85 | 1005.7 |
| 20260506002051 | 79 | 165 | 6.1 | 15.6 | 0.00 | 0.00 | 0.00 | 85 | 1005.7 |
| 20260506001601 | 79 | 160 | 6.1 | 18.2 | 0.00 | 0.00 | 0.00 | 85 | 1005.6 |
| 20260506001052 | 79 | 111 | 8.7 | 18.2 | 0.00 | 0.00 | 0.00 | 85 | 1005.6 |
| 20260506000558 | 79 | 157 | 7.8 | 19.1 | 0.00 | 0.00 | 0.00 | 85 | 1005.6 |
| 20260506000100 | 79 | 137 | 7.0 | 20.9 | 0.00 | 0.00 | 0.00 | 85 | 1005.5 |
| 20260505235556 | 79 | 182 | 9.6 | 20.9 | 0.00 | 0.00 | 0.00 | 85 | 1005.4 |
| 20260505235055 | 79 | 182 | 8.7 | 18.2 | 0.00 | 0.00 | 0.00 | 85 | 1005.5 |
| 20260505234556 | 79 | 143 | 10.4 | 19.1 | 0.00 | 0.00 | 0.00 | 85 | 1005.5 |
| 20260505234055 | 79 | 130 | 9.6 | 19.1 | 0.00 | 0.00 | 0.00 | 84 | 1005.5 |
| 20260505233553 | 79 | 150 | 9.6 | 17.4 | 0.00 | 0.00 | 0.00 | 84 | 1005.6 |
| 20260505233056 | 80 | 135 | 7.0 | 16.5 | 0.00 | 0.00 | 0.00 | 84 | 1005.5 |
| 20260505232556 | 80 | 118 | 6.1 | 17.4 | 0.00 | 0.00 | 0.00 | 84 | 1005.6 |
| 20260505232052 | 80 | 128 | 7.8 | 17.4 | 0.00 | 0.00 | 0.00 | 84 | 1005.7 |
| 20260505231557 | 80 | 151 | 9.6 | 15.6 | 0.00 | 0.00 | 0.00 | 84 | 1005.6 |
| 20260505231052 | 80 | 181 | 7.8 | 15.6 | 0.00 | 0.00 | 0.00 | 84 | 1005.7 |
| 20260505230552 | 79 | 143 | 7.8 | 17.4 | 0.00 | 0.00 | 0.00 | 84 | 1005.7 |
| 20260505230101 | 80 | 144 | 7.8 | 17.4 | 0.00 | 0.00 | 0.00 | 84 | 1005.7 |
| 20260505225552 | 80 | 132 | 9.6 | 20.0 | 0.00 | 0.00 | 0.00 | 84 | 1005.6 |
| 20260505225053 | 79 | 112 | 6.1 | 21.7 | 0.00 | 0.00 | 0.00 | 84 | 1005.7 |
| 20260505224554 | 80 | 115 | 9.6 | 21.7 | 0.00 | 0.00 | 0.00 | 83 | 1005.9 |
| 20260505224054 | 80 | 138 | 9.6 | 15.6 | 0.00 | 0.00 | 0.00 | 83 | 1005.9 |
| 20260505223551 | 80 | 153 | 6.1 | 13.9 | 0.00 | 0.00 | 0.00 | 84 | 1006.1 |
| 20260505223100 | 80 | 153 | 5.2 | 15.6 | 0.00 | 0.00 | 0.00 | 83 | 1006.0 |
| 20260505222551 | 80 | 134 | 6.1 | 15.6 | 0.00 | 0.00 | 0.00 | 83 | 1006.0 |
| 20260505222054 | 80 | 134 | 7.8 | 16.5 | 0.00 | 0.00 | 0.00 | 82 | 1006.1 |
| 20260505221603 | 81 | 138 | 7.8 | 16.5 | 0.00 | 0.00 | 0.00 | 82 | 1006.1 |
| 20260505221052 | 81 | 173 | 7.8 | 17.4 | 0.00 | 0.00 | 0.00 | 82 | 1006.1 |
| 20260505220552 | 81 | 169 | 10.4 | 17.4 | 0.00 | 0.00 | 0.00 | 82 | 1006.1 |
| 20260505220107 | 81 | 123 | 7.0 | 14.8 | 0.00 | 0.00 | 0.00 | 82 | 1006.1 |
| 20260505215552 | 81 | 140 | 7.0 | 14.8 | 0.00 | 0.00 | 0.00 | 82 | 1006.1 |
| 20260505215052 | 81 | 141 | 7.8 | 15.6 | 0.00 | 0.00 | 0.00 | 81 | 1006.1 |
| 20260505214600 | 81 | 150 | 7.0 | 16.5 | 0.00 | 0.00 | 0.00 | 81 | 1006.1 |
| 20260505214052 | 82 | 136 | 8.7 | 16.5 | 0.00 | 0.00 | 0.00 | 80 | 1006.2 |
| 20260505213551 | 82 | 129 | 6.1 | 15.6 | 0.00 | 0.00 | 0.00 | 81 | 1006.1 |
| 20260505213054 | 82 | 126 | 8.7 | 15.6 | 0.00 | 0.00 | 0.00 | 80 | 1006.2 |
| 20260505212554 | 82 | 148 | 8.7 | 15.6 | 0.00 | 0.00 | 0.00 | 79 | 1006.5 |
| 20260505212052 | 82 | 123 | 7.0 | 15.6 | 0.00 | 0.00 | 0.00 | 80 | 1006.6 |
| 20260505211554 | 82 | 134 | 7.8 | 15.6 | 0.00 | 0.00 | 0.00 | 80 | 1006.7 |
| 20260505211123 | 82 | 129 | 9.6 | 15.6 | 0.00 | 0.00 | 0.00 | 79 | 1006.6 |
| 20260505210551 | 82 | 157 | 8.7 | 14.8 | 0.00 | 0.00 | 0.00 | 80 | 1006.6 |
| 20260505210055 | 82 | 107 | 7.8 | 14.8 | 0.00 | 0.00 | 0.00 | 81 | 1006.7 |
| 20260505205555 | 82 | 120 | 7.0 | 20.9 | 0.00 | 0.00 | 0.00 | 80 | 1006.7 |
| 20260505205055 | 82 | 149 | 10.4 | 20.9 | 0.00 | 0.00 | 0.00 | 78 | 1006.7 |
| 20260505204600 | 83 | 138 | 7.0 | 17.4 | 0.00 | 0.00 | 0.00 | 79 | 1006.7 |
| 20260505204052 | 83 | 153 | 8.7 | 17.4 | 0.00 | 0.00 | 0.00 | 78 | 1006.8 |
| 20260505203556 | 83 | 175 | 7.0 | 14.8 | 0.00 | 0.00 | 0.00 | 79 | 1006.9 |
| 20260505203052 | 83 | 141 | 8.7 | 14.8 | 0.00 | 0.00 | 0.00 | 78 | 1007.1 |
| 20260505202552 | 83 | 144 | 7.8 | 13.9 | 0.00 | 0.00 | 0.00 | 78 | 1007.2 |
| 20260505202052 | 83 | 155 | 7.0 | 15.6 | 0.00 | 0.00 | 0.00 | 79 | 1007.1 |
| 20260505201553 | 83 | 148 | 6.1 | 16.5 | 0.00 | 0.00 | 0.00 | 79 | 1007.2 |
| 20260505201055 | 83 | 112 | 7.8 | 16.5 | 0.00 | 0.00 | 0.00 | 79 | 1007.4 |
| 20260505200558 | 83 | 140 | 8.7 | 15.6 | 0.00 | 0.00 | 0.00 | 78 | 1007.4 |
| 20260505200054 | 84 | 140 | 6.1 | 15.6 | 0.00 | 0.00 | 0.00 | 77 | 1007.3 |
| 20260505195551 | 84 | 152 | 9.6 | 15.6 | 0.00 | 0.00 | 0.00 | 75 | 1007.4 |
| 20260505195054 | 85 | 157 | 5.2 | 19.1 | 0.00 | 0.00 | 0.00 | 75 | 1007.4 |
| 20260505194602 | 85 | 178 | 8.7 | 19.1 | 0.00 | 0.00 | 0.00 | 73 | 1007.5 |
| 20260505194052 | 84 | 187 | 7.8 | 15.6 | 0.00 | 0.00 | 0.00 | 74 | 1007.5 |
| 20260505193556 | 83 | 161 | 7.8 | 15.6 | 0.00 | 0.00 | 0.00 | 76 | 1007.5 |
| 20260505193054 | 83 | 150 | 6.1 | 17.4 | 0.00 | 0.00 | 0.00 | 77 | 1007.7 |
| 20260505192551 | 84 | 132 | 7.8 | 17.4 | 0.00 | 0.00 | 0.00 | 75 | 1007.7 |
| 20260505192052 | 84 | 155 | 9.6 | 18.2 | 0.00 | 0.00 | 0.00 | 74 | 1007.7 |
| 20260505191554 | 85 | 148 | 11.3 | 19.1 | 0.00 | 0.00 | 0.00 | 74 | 1007.7 |
| 20260505191056 | 85 | 136 | 7.8 | 19.1 | 0.00 | 0.00 | 0.00 | 76 | 1007.7 |
| 20260505190551 | 83 | 150 | 7.0 | 13.9 | 0.00 | 0.00 | 0.00 | 78 | 1007.7 |
| 20260505190056 | 83 | 113 | 6.1 | 13.9 | 0.00 | 0.00 | 0.00 | 78 | 1007.8 |
| 20260505185555 | 82 | 149 | 6.1 | 14.8 | 0.00 | 0.00 | 0.00 | 78 | 1007.9 |
| 20260505185055 | 82 | 157 | 7.8 | 14.8 | 0.00 | 0.00 | 0.00 | 78 | 1008.0 |
| 20260505184555 | 82 | 130 | 7.8 | 16.5 | 0.00 | 0.00 | 0.00 | 78 | 1008.0 |
| 20260505184055 | 82 | 153 | 8.7 | 16.5 | 0.00 | 0.00 | 0.00 | 78 | 1008.1 |
| 20260505183557 | 82 | 146 | 7.8 | 15.6 | 0.00 | 0.00 | 0.00 | 76 | 1008.1 |
| 20260505183057 | 83 | 192 | 7.8 | 18.2 | 0.00 | 0.00 | 0.00 | 75 | 1008.2 |
| 20260505182551 | 83 | 217 | 8.7 | 20.0 | 0.00 | 0.00 | 0.00 | 76 | 1008.1 |
| 20260505182051 | 83 | 155 | 7.0 | 20.0 | 0.00 | 0.00 | 0.00 | 76 | 1008.0 |
| 20260505181555 | 83 | 160 | 8.7 | 18.2 | 0.00 | 0.00 | 0.00 | 77 | 1008.0 |
| 20260505181054 | 83 | 210 | 5.2 | 13.9 | 0.00 | 0.00 | 0.00 | 77 | 1008.1 |
| 20260505180551 | 83 | 192 | 7.0 | 13.9 | 0.00 | 0.00 | 0.00 | 77 | 1008.2 |
| 20260505180058 | 82 | 194 | 6.1 | 17.4 | 0.00 | 0.00 | 0.00 | 77 | 1008.2 |
| 20260505175556 | 82 | 217 | 6.1 | 17.4 | 0.00 | 0.00 | 0.00 | 80 | 1008.3 |
| 20260505175052 | 81 | 201 | 6.1 | 13.0 | 0.00 | 0.00 | 0.00 | 81 | 1008.3 |
| 20260505174553 | 81 | 166 | 5.2 | 12.2 | 0.00 | 0.00 | 0.00 | 81 | 1008.5 |
| 20260505174055 | 81 | 117 | 6.1 | 13.0 | 0.00 | 0.00 | 0.00 | 81 | 1008.4 |
| 20260505173554 | 81 | 209 | 7.0 | 13.0 | 0.00 | 0.00 | 0.00 | 82 | 1008.4 |
| 20260505173100 | 80 | 188 | 4.3 | 11.3 | 0.00 | 0.00 | 0.00 | 83 | 1008.5 |
| 20260505172558 | 79 | 180 | 6.1 | 11.3 | 0.00 | 0.00 | 0.00 | 85 | 1008.7 |
| 20260505172054 | 79 | 160 | 6.1 | 17.4 | 0.00 | 0.00 | 0.00 | 84 | 1008.7 |
| 20260505171557 | 79 | 192 | 7.0 | 17.4 | 0.00 | 0.00 | 0.00 | 84 | 1008.7 |
| 20260505171054 | 79 | 174 | 4.3 | 9.6 | 0.00 | 0.00 | 0.00 | 84 | 1008.8 |
| 20260505170552 | 79 | 134 | 2.6 | 9.6 | 0.00 | 0.00 | 0.00 | 85 | 1008.7 |
| 20260505170055 | 79 | 198 | 1.7 | 11.3 | 0.00 | 0.00 | 0.00 | 84 | 1008.8 |
| 20260505165551 | 80 | 176 | 6.1 | 13.0 | 0.00 | 0.00 | 0.00 | 84 | 1008.8 |
| 20260505165054 | 80 | 217 | 6.1 | 13.0 | 0.00 | 0.00 | 0.00 | 85 | 1008.9 |
| 20260505164600 | 79 | 184 | 2.6 | 13.9 | 0.00 | 0.00 | 0.00 | 85 | 1008.9 |
| 20260505164054 | 79 | 182 | 3.5 | 13.9 | 0.00 | 0.00 | 0.00 | 85 | 1008.9 |
| 20260505163554 | 79 | 164 | 5.2 | 10.4 | 0.00 | 0.00 | 0.00 | 85 | 1008.9 |
| 20260505163054 | 80 | 146 | 4.3 | 10.4 | 0.00 | 0.00 | 0.00 | 85 | 1008.9 |
| 20260505162555 | 79 | 165 | 6.1 | 10.4 | 0.00 | 0.00 | 0.00 | 87 | 1008.8 |
| 20260505162056 | 79 | 178 | 5.2 | 13.0 | 0.00 | 0.00 | 0.00 | 88 | 1008.9 |
| 20260505161601 | 78 | 200 | 6.1 | 13.0 | 0.00 | 0.00 | 0.00 | 88 | 1009.0 |
| 20260505161055 | 78 | 167 | 5.2 | 12.2 | 0.00 | 0.00 | 0.00 | 89 | 1008.9 |
| 20260505160554 | 77 | 202 | 5.2 | 12.2 | 0.00 | 0.00 | 0.00 | 89 | 1008.9 |
| 20260505153110 | 76 | 169 | 5.2 | 10.4 | 0.00 | 0.00 | 0.00 | 92 | 1008.7 |
| 20260505152558 | 76 | 148 | 3.5 | 8.7 | 0.00 | 0.00 | 0.00 | 92 | 1008.6 |
| 20260505152055 | 76 | 157 | 3.5 | 10.4 | 0.00 | 0.00 | 0.00 | 91 | 1008.6 |
| 20260505151556 | 76 | 150 | 4.3 | 10.4 | 0.00 | 0.00 | 0.00 | 92 | 1008.7 |
| 20260505151056 | 76 | 174 | 1.7 | 8.7 | 0.00 | 0.00 | 0.00 | 92 | 1008.7 |
| 20260505150551 | 76 | 163 | 2.6 | 8.7 | 0.00 | 0.00 | 0.00 | 92 | 1008.7 |
| 20260505140551 | 74 | 188 | 3.5 | 7.0 | 0.00 | 0.00 | 0.00 | 94 | 1008.6 |
| 20260505140104 | 74 | 190 | 3.5 | 7.8 | 0.00 | 0.00 | 0.00 | 94 | 1008.6 |
| 20260505124559 | 73 | 172 | 4.3 | 8.7 | 0.00 | 0.00 | 0.00 | 95 | 1008.2 |
| 20260505124056 | 72 | 175 | 2.6 | 8.7 | 0.00 | 0.00 | 0.00 | 95 | 1008.1 |
| 20260505123600 | 72 | 180 | 3.5 | 8.7 | 0.00 | 0.00 | 0.00 | 95 | 1008.1 |
| 20260505123059 | 72 | 147 | 3.5 | 7.8 | 0.00 | 0.00 | 0.00 | 95 | 1008.0 |
| 20260505122559 | 72 | 173 | 3.5 | 7.8 | 0.00 | 0.00 | 0.00 | 95 | 1008.0 |
| 20260505122051 | 72 | 144 | 2.6 | 9.6 | 0.00 | 0.00 | 0.00 | 96 | 1007.9 |
| 20260505121553 | 72 | 181 | 3.5 | 9.6 | 0.00 | 0.00 | 0.00 | 96 | 1007.8 |
| 20260505121055 | 71 | 169 | 3.5 | 9.6 | 0.00 | 0.00 | 0.00 | 96 | 1007.8 |
| 20260505120553 | 71 | 163 | 3.5 | 7.8 | 0.00 | 0.00 | 0.00 | 96 | 1007.8 |
| 20260505120106 | 71 | 162 | 1.7 | 8.7 | 0.00 | 0.00 | 0.00 | 96 | 1007.8 |
| 20260505115554 | 71 | 159 | 1.7 | 9.6 | 0.00 | 0.00 | 0.00 | 96 | 1007.9 |
| 20260505115055 | 71 | 158 | 2.6 | 9.6 | 0.00 | 0.00 | 0.00 | 96 | 1007.9 |
| 20260505114556 | 71 | 172 | 2.6 | 7.0 | 0.00 | 0.00 | 0.00 | 96 | 1008.0 |
| 20260505114053 | 71 | 167 | 2.6 | 7.0 | 0.00 | 0.00 | 0.00 | 96 | 1008.0 |
| 20260505113554 | 71 | 167 | 1.7 | 7.8 | 0.00 | 0.00 | 0.00 | 96 | 1008.0 |
| 20260505113115 | 70 | 128 | 1.7 | 7.8 | 0.00 | 0.00 | 0.00 | 96 | 1007.9 |
| 20260505112555 | 70 | 137 | 3.5 | 7.0 | 0.00 | 0.00 | 0.00 | 96 | 1007.9 |
| 20260505112051 | 70 | 138 | 2.6 | 7.8 | 0.00 | 0.00 | 0.00 | 96 | 1008.0 |
| 20260505111602 | 70 | 101 | 3.5 | 7.8 | 0.00 | 0.00 | 0.00 | 96 | 1007.7 |
| 20260505111058 | 70 | 122 | 3.5 | 7.8 | 0.00 | 0.00 | 0.00 | 96 | 1007.7 |
| 20260505110552 | 70 | 158 | 2.6 | 7.0 | 0.00 | 0.00 | 0.00 | 96 | 1007.8 |